Time,TemperatureF,DewpointF,PressureIn,WindDirection,WindDirectionDegrees,WindSpeedMPH,WindSpeedGustMPH,Humidity,HourlyPrecipIn,Conditions,Clouds,dailyrainin,SoftwareType,DateUTC
2013-02-11 07:35:00,51.0,51.0,30.08,South,179,0.0,0.0,100,0.04,,,0.07,Wunderground v.1.15,2013-02-11 12:35:00,
2013-02-11 07:40:00,51.8,51.8,30.07,SE,143,0.0,0.0,100,0.00,,,0.07,Wunderground v.1.15,2013-02-11 12:40:00,
2013-02-11 07:45:00,52.6,52.6,30.07,SE,143,0.0,0.0,100,0.00,,,0.07,Wunderground v.1.15,2013-02-11 12:45:00,
2013-02-11 07:55:00,54.1,54.1,30.07,SSE,148,0.0,0.0,100,0.00,,,0.07,Wunderground v.1.15,2013-02-11 12:55:00,
2013-02-11 08:00:00,54.7,54.7,30.07,SSE,149,1.0,1.0,100,0.00,,,0.08,Wunderground v.1.15,2013-02-11 13:00:00,
2013-02-11 08:10:00,55.0,55.0,30.06,SE,145,0.0,0.0,100,0.00,,,0.08,Wunderground v.1.15,2013-02-11 13:10:00,
2013-02-11 08:15:00,55.2,55.2,30.05,SE,125,0.0,1.0,100,0.00,,,0.08,Wunderground v.1.15,2013-02-11 13:15:00,
2013-02-11 08:25:00,56.0,56.0,30.04,SE,143,0.0,1.0,100,0.00,,,0.08,Wunderground v.1.15,2013-02-11 13:25:00,
2013-02-11 08:30:00,56.1,56.1,30.04,North,8,0.0,4.0,100,0.00,,,0.08,Wunderground v.1.15,2013-02-11 13:30:00,
2013-02-11 08:35:00,56.4,56.4,30.04,SSE,148,1.0,4.0,100,0.00,,,0.08,Wunderground v.1.15,2013-02-11 13:35:00,
2013-02-11 08:40:00,56.6,56.6,30.04,South,187,1.0,1.0,100,0.00,,,0.08,Wunderground v.1.15,2013-02-11 13:40:00,
2013-02-11 08:50:00,57.0,57.0,30.02,SE,132,1.0,1.0,100,0.00,,,0.08,Wunderground v.1.15,2013-02-11 13:50:00,
2013-02-11 08:55:00,57.1,57.1,30.02,SSW,211,1.0,2.0,100,0.00,,,0.08,Wunderground v.1.15,2013-02-11 13:55:00,
2013-02-11 09:05:00,57.4,57.4,30.03,SE,136,1.0,2.0,100,0.00,,,0.08,Wunderground v.1.15,2013-02-11 14:05:00,
2013-02-11 09:10:00,57.5,57.2,30.02,ESE,122,1.0,1.0,99,0.00,,,0.08,Wunderground v.1.15,2013-02-11 14:10:00,
2013-02-11 09:20:00,57.6,57.3,30.03,South,188,1.0,1.0,99,0.00,,,0.08,Wunderground v.1.15,2013-02-11 14:20:00,
2013-02-11 09:30:00,57.8,57.5,30.03,ESE,114,1.0,1.0,99,0.00,,,0.08,Wunderground v.1.15,2013-02-11 14:30:00,
2013-02-11 09:35:00,57.9,57.6,30.03,SW,217,1.0,3.0,99,0.00,,,0.08,Wunderground v.1.15,2013-02-11 14:35:00,
2013-02-11 09:40:00,58.0,57.7,30.03,North,356,1.0,1.0,99,0.00,,,0.08,Wunderground v.1.15,2013-02-11 14:40:00,
2013-02-11 09:45:00,58.0,57.7,30.03,SSW,197,1.0,1.0,99,0.00,,,0.08,Wunderground v.1.15,2013-02-11 14:45:00,
2013-02-11 09:55:00,58.2,57.9,30.04,ESE,120,1.0,1.0,99,0.00,,,0.08,Wunderground v.1.15,2013-02-11 14:55:00,
2013-02-11 10:00:00,58.2,57.9,30.05,SW,224,1.0,4.0,99,0.00,,,0.08,Wunderground v.1.15,2013-02-11 15:00:00,
2013-02-11 10:10:00,58.4,57.8,30.05,SSE,151,1.0,1.0,98,0.00,,,0.08,Wunderground v.1.15,2013-02-11 15:10:00,
2013-02-11 10:15:00,58.5,57.9,30.05,SW,217,1.0,1.0,98,0.00,,,0.08,Wunderground v.1.15,2013-02-11 15:15:00,
2013-02-11 10:25:00,58.7,58.1,30.04,SSW,205,2.0,2.0,98,0.00,,,0.08,Wunderground v.1.15,2013-02-11 15:25:00,
2013-02-11 10:30:00,58.7,58.1,30.04,SSE,158,1.0,1.0,98,0.00,,,0.08,Wunderground v.1.15,2013-02-11 15:30:00,
2013-02-11 10:40:00,58.9,58.3,30.03,SSW,195,2.0,2.0,98,0.00,,,0.08,Wunderground v.1.15,2013-02-11 15:40:00,
2013-02-11 10:45:00,59.0,58.4,30.03,SSW,193,1.0,2.0,98,0.00,,,0.08,Wunderground v.1.15,2013-02-11 15:45:00,
2013-02-11 10:55:00,59.0,58.2,30.02,ESE,118,0.0,1.0,97,0.00,,,0.08,Wunderground v.1.15,2013-02-11 15:55:00,
2013-02-11 11:00:00,59.0,58.2,30.02,SSE,163,1.0,1.0,97,0.00,,,0.08,Wunderground v.1.15,2013-02-11 16:00:00,
2013-02-11 11:10:00,59.1,58.2,30.01,SSE,155,1.0,1.0,97,0.00,,,0.08,Wunderground v.1.15,2013-02-11 16:10:00,
2013-02-11 11:15:00,59.2,58.3,30.01,SSE,167,0.0,1.0,97,0.00,,,0.08,Wunderground v.1.15,2013-02-11 16:15:00,
2013-02-11 11:20:00,59.3,58.4,30.01,South,188,0.0,0.0,97,0.00,,,0.08,Wunderground v.1.15,2013-02-11 16:20:00,
2013-02-11 11:25:00,59.4,58.5,30.01,SSE,153,1.0,1.0,97,0.00,,,0.08,Wunderground v.1.15,2013-02-11 16:25:00,
2013-02-11 11:35:00,59.6,58.7,30.01,SSE,165,1.0,4.0,97,0.00,,,0.08,Wunderground v.1.15,2013-02-11 16:35:00,
2013-02-11 11:40:00,59.7,58.8,30.00,South,191,1.0,1.0,97,0.00,,,0.08,Wunderground v.1.15,2013-02-11 16:40:00,
2013-02-11 11:45:00,59.7,58.8,29.99,SSW,195,0.0,1.0,97,0.00,,,0.08,Wunderground v.1.15,2013-02-11 16:45:00,
2013-02-11 11:55:00,59.8,58.9,29.99,WSW,248,0.0,2.0,97,0.00,,,0.08,Wunderground v.1.15,2013-02-11 16:55:00,
2013-02-11 12:00:00,59.9,59.0,29.99,NNW,329,1.0,2.0,97,0.00,,,0.08,Wunderground v.1.15,2013-02-11 17:00:00,
2013-02-11 12:10:00,60.1,59.2,29.99,South,177,1.0,1.0,97,0.00,,,0.08,Wunderground v.1.15,2013-02-11 17:10:00,
2013-02-11 12:15:00,60.1,59.2,30.00,South,170,1.0,1.0,97,0.00,,,0.08,Wunderground v.1.15,2013-02-11 17:15:00,
2013-02-11 12:20:00,60.2,59.3,29.99,SSE,167,1.0,1.0,97,0.00,,,0.08,Wunderground v.1.15,2013-02-11 17:20:00,
2013-02-11 12:30:00,60.3,59.2,29.99,SSW,195,1.0,1.0,96,0.00,,,0.08,Wunderground v.1.15,2013-02-11 17:30:00,
2013-02-11 12:35:00,60.3,59.2,29.99,SSE,159,1.0,1.0,96,0.00,,,0.08,Wunderground v.1.15,2013-02-11 17:35:00,
2013-02-11 12:40:00,60.3,59.2,29.99,SSE,163,1.0,1.0,96,0.00,,,0.08,Wunderground v.1.15,2013-02-11 17:40:00,
2013-02-11 12:45:00,60.4,59.3,29.99,South,190,1.0,1.0,96,0.00,,,0.08,Wunderground v.1.15,2013-02-11 17:45:00,
2013-02-11 12:55:00,60.3,59.4,29.98,SSE,162,1.0,2.0,97,0.00,,,0.08,Wunderground v.1.15,2013-02-11 17:55:00,
2013-02-11 13:00:00,60.3,59.4,29.99,SSW,212,1.0,1.0,97,0.00,,,0.08,Wunderground v.1.15,2013-02-11 18:00:00,
2013-02-11 13:10:00,60.2,59.3,29.97,SSW,194,1.0,1.0,97,0.00,,,0.08,Wunderground v.1.15,2013-02-11 18:10:00,
2013-02-11 13:15:00,60.2,59.3,29.97,SSE,160,1.0,1.0,97,0.00,,,0.08,Wunderground v.1.15,2013-02-11 18:15:00,
2013-02-11 13:25:00,60.1,59.2,29.97,SE,126,1.0,1.0,97,0.00,,,0.08,Wunderground v.1.15,2013-02-11 18:25:00,
2013-02-11 13:35:00,60.1,59.5,29.96,SE,129,0.0,2.0,98,0.00,,,0.08,Wunderground v.1.15,2013-02-11 18:35:00,
2013-02-11 13:40:00,60.1,59.5,29.96,NW,316,1.0,1.0,98,0.00,,,0.08,Wunderground v.1.15,2013-02-11 18:40:00,
2013-02-11 13:50:00,60.3,59.7,29.95,SSW,212,1.0,1.0,98,0.00,,,0.08,Wunderground v.1.15,2013-02-11 18:50:00,
2013-02-11 13:55:00,60.3,59.7,29.94,SSW,205,1.0,1.0,98,0.00,,,0.08,Wunderground v.1.15,2013-02-11 18:55:00,
2013-02-11 14:05:00,60.5,59.6,29.94,SW,217,1.0,1.0,97,0.00,,,0.08,Wunderground v.1.15,2013-02-11 19:05:00,
2013-02-11 14:10:00,60.6,59.7,29.94,SSW,207,1.0,1.0,97,0.00,,,0.08,Wunderground v.1.15,2013-02-11 19:10:00,
2013-02-11 14:15:00,60.7,59.8,29.94,SSE,158,1.0,1.0,97,0.00,,,0.08,Wunderground v.1.15,2013-02-11 19:15:00,
2013-02-11 14:25:00,60.8,59.9,29.94,SSW,212,1.0,1.0,97,0.00,,,0.08,Wunderground v.1.15,2013-02-11 19:25:00,
2013-02-11 14:30:00,60.9,59.8,29.94,South,171,1.0,1.0,96,0.00,,,0.08,Wunderground v.1.15,2013-02-11 19:30:00,
2013-02-11 14:40:00,61.1,60.0,29.94,SE,128,1.0,1.0,96,0.00,,,0.08,Wunderground v.1.15,2013-02-11 19:40:00,
2013-02-11 14:45:00,61.2,59.8,29.93,South,170,1.0,1.0,95,0.00,,,0.08,Wunderground v.1.15,2013-02-11 19:45:00,
2013-02-11 14:55:00,61.5,60.1,29.93,South,186,1.0,2.0,95,0.00,,,0.08,Wunderground v.1.15,2013-02-11 19:55:00,
2013-02-11 15:00:00,61.6,60.2,29.94,SSW,205,1.0,1.0,95,0.00,,,0.08,Wunderground v.1.15,2013-02-11 20:00:00,
2013-02-11 15:10:00,61.6,59.9,29.94,SW,222,1.0,3.0,94,0.00,,,0.08,Wunderground v.1.15,2013-02-11 20:10:00,
2013-02-11 15:15:00,61.7,60.0,29.95,ESE,117,2.0,3.0,94,0.00,,,0.08,Wunderground v.1.15,2013-02-11 20:15:00,
2013-02-11 15:25:00,61.7,60.0,29.95,SSW,210,1.0,1.0,94,0.00,,,0.08,Wunderground v.1.15,2013-02-11 20:25:00,
2013-02-11 15:30:00,61.8,60.1,29.94,SSE,148,1.0,1.0,94,0.00,,,0.08,Wunderground v.1.15,2013-02-11 20:30:00,
2013-02-11 15:40:00,61.8,60.1,29.93,SE,145,1.0,1.0,94,0.00,,,0.08,Wunderground v.1.15,2013-02-11 20:40:00,
2013-02-11 15:45:00,61.8,60.1,29.93,SSW,210,1.0,1.0,94,0.00,,,0.08,Wunderground v.1.15,2013-02-11 20:45:00,
2013-02-11 15:50:00,61.8,60.1,29.93,SW,218,1.0,1.0,94,0.00,,,0.08,Wunderground v.1.15,2013-02-11 20:50:00,
2013-02-11 16:00:00,61.8,60.1,29.92,SSE,163,1.0,1.0,94,0.00,,,0.08,Wunderground v.1.15,2013-02-11 21:00:00,
2013-02-11 16:05:00,61.9,59.9,29.92,South,183,1.0,1.0,93,0.00,,,0.08,Wunderground v.1.15,2013-02-11 21:05:00,
2013-02-11 16:15:00,61.9,59.9,29.92,SE,124,1.0,1.0,93,0.00,,,0.08,Wunderground v.1.15,2013-02-11 21:15:00,
2013-02-11 18:45:00,61.2,58.9,29.93,South,186,1.0,4.0,92,0.00,,,0.08,Wunderground v.1.15,2013-02-11 23:45:00,
2013-02-11 18:55:00,60.9,58.6,29.93,South,183,0.0,0.0,92,0.00,,,0.08,Wunderground v.1.15,2013-02-11 23:55:00,
2013-02-11 19:00:00,60.6,58.3,29.93,South,181,0.0,0.0,92,0.00,,,0.08,Wunderground v.1.15,2013-02-12 00:00:00,
2013-02-11 19:10:00,60.1,58.1,29.93,SSW,200,0.0,0.0,93,0.00,,,0.08,Wunderground v.1.15,2013-02-12 00:10:00,
2013-02-11 19:15:00,60.0,58.0,29.93,South,191,0.0,0.0,93,0.00,,,0.08,Wunderground v.1.15,2013-02-12 00:15:00,
2013-02-11 19:20:00,60.2,58.2,29.93,South,190,0.0,1.0,93,0.00,,,0.08,Wunderground v.1.15,2013-02-12 00:20:00,
2013-02-11 19:25:00,60.1,58.1,29.94,SSE,166,0.0,1.0,93,0.00,,,0.08,Wunderground v.1.15,2013-02-12 00:25:00,
2013-02-11 19:30:00,60.0,58.0,29.94,SSE,166,0.0,0.0,93,0.00,,,0.08,Wunderground v.1.15,2013-02-12 00:30:00,
2013-02-11 19:40:00,59.7,58.0,29.95,South,187,0.0,0.0,94,0.00,,,0.08,Wunderground v.1.15,2013-02-12 00:40:00,
2013-02-11 19:45:00,59.7,58.0,29.95,SSW,193,0.0,1.0,94,0.00,,,0.08,Wunderground v.1.15,2013-02-12 00:45:00,
2013-02-11 19:50:00,59.8,58.1,29.95,SSW,193,0.0,0.0,94,0.00,,,0.08,Wunderground v.1.15,2013-02-12 00:50:00,
2013-02-11 20:00:00,59.6,57.9,29.94,SSW,193,0.0,0.0,94,0.00,,,0.08,Wunderground v.1.15,2013-02-12 01:00:00,
2013-02-11 20:10:00,58.9,56.9,29.93,South,171,0.0,0.0,93,0.00,,,0.08,Wunderground v.1.15,2013-02-12 01:10:00,
2013-02-11 20:15:00,58.6,56.9,29.94,South,171,0.0,0.0,94,0.00,,,0.08,Wunderground v.1.15,2013-02-12 01:15:00,
2013-02-11 20:20:00,58.4,57.0,29.94,South,170,0.0,0.0,95,0.00,,,0.08,Wunderground v.1.15,2013-02-12 01:20:00,
2013-02-11 20:25:00,58.3,56.9,29.94,South,170,0.0,0.0,95,0.00,,,0.08,Wunderground v.1.15,2013-02-12 01:25:00,
2013-02-11 20:30:00,58.1,56.7,29.94,SSW,208,0.0,0.0,95,0.00,,,0.08,Wunderground v.1.15,2013-02-12 01:30:00,
2013-02-11 20:35:00,57.8,56.4,29.93,SSW,208,0.0,0.0,95,0.00,,,0.08,Wunderground v.1.15,2013-02-12 01:35:00,
2013-02-11 20:40:00,57.7,56.6,29.94,SSW,208,0.0,0.0,96,0.00,,,0.08,Wunderground v.1.15,2013-02-12 01:40:00,
2013-02-11 20:45:00,57.4,56.3,29.94,SSW,208,0.0,0.0,96,0.00,,,0.08,Wunderground v.1.15,2013-02-12 01:45:00,
2013-02-11 20:55:00,57.0,55.9,29.93,SSW,208,0.0,0.0,96,0.00,,,0.08,Wunderground v.1.15,2013-02-12 01:55:00,
2013-02-11 21:00:00,56.7,55.6,29.94,SSW,208,0.0,0.0,96,0.00,,,0.08,Wunderground v.1.15,2013-02-12 02:00:00,
2013-02-11 21:10:00,56.7,55.9,29.94,SSW,204,0.0,0.0,97,0.00,,,0.08,Wunderground v.1.15,2013-02-12 02:10:00,
2013-02-11 21:15:00,56.6,55.8,29.94,SSW,203,0.0,0.0,97,0.00,,,0.08,Wunderground v.1.15,2013-02-12 02:15:00,
2013-02-11 21:20:00,56.4,55.6,29.94,SSW,203,0.0,0.0,97,0.00,,,0.08,Wunderground v.1.15,2013-02-12 02:20:00,
2013-02-11 21:25:00,56.1,55.3,29.94,SSW,203,0.0,0.0,97,0.00,,,0.08,Wunderground v.1.15,2013-02-12 02:25:00,
2013-02-11 21:30:00,56.2,55.4,29.94,SSW,201,0.0,0.0,97,0.00,,,0.08,Wunderground v.1.15,2013-02-12 02:30:00,
2013-02-11 21:40:00,56.7,56.1,29.93,South,190,0.0,2.0,98,0.00,,,0.08,Wunderground v.1.15,2013-02-12 02:40:00,
2013-02-11 21:50:00,57.1,56.0,29.93,SW,223,0.0,1.0,96,0.00,,,0.08,Wunderground v.1.15,2013-02-12 02:50:00,
2013-02-11 21:55:00,57.0,55.9,29.93,SSW,212,0.0,1.0,96,0.00,,,0.08,Wunderground v.1.15,2013-02-12 02:55:00,
2013-02-11 22:00:00,56.9,55.8,29.93,SSW,203,0.0,1.0,96,0.00,,,0.08,Wunderground v.1.15,2013-02-12 03:00:00,
2013-02-11 22:10:00,57.1,55.7,29.94,NW,315,0.0,0.0,95,0.00,,,0.08,Wunderground v.1.15,2013-02-12 03:10:00,
2013-02-11 22:15:00,57.0,55.6,29.93,NW,314,0.0,1.0,95,0.00,,,0.08,Wunderground v.1.15,2013-02-12 03:15:00,
2013-02-11 22:25:00,56.9,55.5,29.94,SSW,204,0.0,0.0,95,0.00,,,0.08,Wunderground v.1.15,2013-02-12 03:25:00,
2013-02-11 22:30:00,56.9,55.5,29.94,South,173,0.0,0.0,95,0.00,,,0.08,Wunderground v.1.15,2013-02-12 03:30:00,
2013-02-11 22:35:00,56.8,55.4,29.93,South,175,0.0,0.0,95,0.00,,,0.08,Wunderground v.1.15,2013-02-12 03:35:00,
2013-02-11 22:40:00,56.7,55.3,29.93,South,175,0.0,0.0,95,0.00,,,0.08,Wunderground v.1.15,2013-02-12 03:40:00,
2013-02-11 22:45:00,56.5,55.1,29.93,South,176,0.0,0.0,95,0.00,,,0.08,Wunderground v.1.15,2013-02-12 03:45:00,
2013-02-11 22:50:00,56.1,54.7,29.93,ESE,116,0.0,1.0,95,0.00,,,0.08,Wunderground v.1.15,2013-02-12 03:50:00,
2013-02-11 23:00:00,55.9,54.5,29.93,SSW,197,0.0,0.0,95,0.00,,,0.08,Wunderground v.1.15,2013-02-12 04:00:00,
2013-02-11 23:10:00,55.8,54.4,29.93,SW,217,0.0,0.0,95,0.00,,,0.08,Wunderground v.1.15,2013-02-12 04:10:00,
2013-02-11 23:15:00,55.7,54.6,29.93,South,179,0.0,0.0,96,0.00,,,0.08,Wunderground v.1.15,2013-02-12 04:15:00,
2013-02-11 23:20:00,55.6,54.5,29.93,South,180,0.0,0.0,96,0.00,,,0.08,Wunderground v.1.15,2013-02-12 04:20:00,
2013-02-11 23:25:00,55.5,54.4,29.92,SSW,198,0.0,0.0,96,0.00,,,0.08,Wunderground v.1.15,2013-02-12 04:25:00,
2013-02-11 23:30:00,55.5,54.4,29.93,SSW,198,0.0,1.0,96,0.00,,,0.08,Wunderground v.1.15,2013-02-12 04:30:00,
2013-02-11 23:35:00,55.3,53.9,29.93,SW,219,0.0,1.0,95,0.00,,,0.08,Wunderground v.1.15,2013-02-12 04:35:00,
2013-02-11 23:40:00,55.2,54.1,29.93,SW,219,0.0,0.0,96,0.00,,,0.08,Wunderground v.1.15,2013-02-12 04:40:00,
2013-02-11 23:45:00,54.9,53.8,29.93,SW,219,0.0,0.0,96,0.00,,,0.08,Wunderground v.1.15,2013-02-12 04:45:00,
2013-02-11 23:55:00,54.6,53.5,29.93,SW,219,0.0,0.0,96,0.00,,,0.08,Wunderground v.1.15,2013-02-12 04:55:00,